Van Nuys, CA

1:54 AM PST on February 21, 2018 (GMT -0800)
Van Nuys

Weather History for KVNY - May, 2014

Change the Weather History Date:

Friday, May 2, 2014

  Actual Average Record
Temperature  
Mean Temperature 80 °F -  
Max Temperature 97 °F 75 °F 99 °F (2004)
Min Temperature 64 °F 52 °F 46 °F (2002)
Cooling Degree Days 16    
Growing Degree Days 30 (Base 50)    
Moisture  
Dew Point 29 °F    
Average Humidity 18    
Maximum Humidity 37    
Minimum Humidity 5    
Precipitation  
Precipitation 0.00 in - - ()
Sea Level Pressure  
Sea Level Pressure 29.93 in    
Wind  
Wind Speed 2 mph (WSW)    
Max Wind Speed 14 mph    
Max Gust Speed 18 mph    
Visibility 10 miles    
Events      
Averages and records for this station are not official NWS values.
T = Trace of Precipitation, MM = Missing Value Source: NWS Daily Summary

Daily Weather History Graph

Daily Weather History Graph

Search for Another Location

Airport or City:

Trip Planner

Search our weather history database for the weather conditions in past years. The results will help you decide how hot, cold, wet, or windy it might be!

Date:

Astronomy

May. 02, 2014 Rise Set
Actual Time 6:03 AM PDT 7:38 PM PDT
Civil Twilight 5:36 AM PDT 8:05 PM PDT
Nautical Twilight 5:04 AM PDT 8:38 PM PDT
Astronomical Twilight 4:30 AM PDT 9:12 PM PDT
Moon 8:47 AM PDT (5/2) 11:02 PM PDT (5/2)
Length of Visible Light 14h 29m
Length of Day
13h 35m
Waxing Crescent, 13% of the Moon is Illuminated
May 2
Waxing Crescent
May 6
First Quarter
May 14
Full
May 21
Last Quarter
May 28
New

Hourly Weather History & Observations

Time (PDT) Temp. Dew Point Humidity Pressure Visibility Wind Dir Wind Speed Gust Speed Precip Events Conditions
12:51 AM 71.1 °F 24.1 °F 17% 29.96 in 10.0 mi Calm Calm - N/A   Clear
1:51 AM 69.1 °F 26.1 °F 20% 29.95 in 10.0 mi Calm Calm - N/A   Clear
2:51 AM 66.9 °F 28.9 °F 24% 29.94 in 10.0 mi Calm Calm - N/A   Clear
3:51 AM 64.9 °F 33.1 °F 31% 29.94 in 10.0 mi Calm Calm - N/A   Clear
4:51 AM 64.0 °F 32.0 °F 30% 29.95 in 10.0 mi Calm Calm - N/A   Clear
5:51 AM 64.9 °F 33.1 °F 31% 29.95 in 10.0 mi Calm Calm - N/A   Clear
6:51 AM 64.0 °F 37.0 °F 37% 29.96 in 10.0 mi Calm Calm - N/A   Clear
7:51 AM 71.1 °F 36.0 °F 28% 29.98 in 10.0 mi Calm Calm - N/A   Clear
8:51 AM 79.0 °F 37.0 °F 22% 29.98 in 10.0 mi Calm Calm - N/A   Clear
9:51 AM 86.0 °F 28.9 °F 13% 29.97 in 10.0 mi Calm Calm - N/A   Clear
10:51 AM 91.0 °F 30.0 °F 11% 29.97 in 10.0 mi Calm Calm - N/A   Clear
11:51 AM 93.0 °F 28.0 °F 10% 29.96 in 10.0 mi ESE 5.8 mph - N/A   Clear
12:51 PM 95.0 °F 25.0 °F 8% 29.93 in 10.0 mi Variable 4.6 mph - N/A   Clear
1:51 PM 96.1 °F 23.0 °F 7% 29.92 in 10.0 mi South 11.5 mph - N/A   Clear
2:51 PM 97.0 °F 17.1 °F 5% 29.90 in 10.0 mi SSE 12.7 mph - N/A   Clear
3:51 PM 96.1 °F 23.0 °F 7% 29.89 in 10.0 mi SW 8.1 mph - N/A   Clear
4:51 PM 95.0 °F 23.0 °F 8% 29.87 in 10.0 mi WNW 13.8 mph 18.4 mph N/A   Clear
5:51 PM 91.0 °F 26.1 °F 10% 29.87 in 10.0 mi NW 10.4 mph 18.4 mph N/A   Clear
6:51 PM 88.0 °F 26.1 °F 11% 29.88 in 10.0 mi Variable 5.8 mph 16.1 mph N/A   Clear
7:51 PM 84.0 °F 28.0 °F 13% 29.88 in 10.0 mi WNW 5.8 mph - N/A   Clear
8:51 PM 81.0 °F 30.0 °F 16% 29.90 in 10.0 mi West 4.6 mph - N/A   Clear
9:51 PM 79.0 °F 30.9 °F 17% 29.91 in 10.0 mi Calm Calm - N/A   Clear
10:51 PM 75.0 °F 34.0 °F 22% 29.90 in 10.0 mi Calm Calm - N/A   Clear
11:51 PM 73.0 °F 35.1 °F 25% 29.90 in 10.0 mi Calm Calm - N/A   Clear